sat.trackr.live / text

‹ back to catalog

STARLINK-34233

NORAD 64172 · 2025-113C

PAYLOAD ACTIVE UNKNOWN

§ Identity

Operator
Country
US
Launch date
2025-05-28
Launch site
AFETR
Launch vehicle
Mass (kg)
RCS (m²)

Purposes: comms

External: N2YO · Heavens-Above · Gunter

§ Orbital elements

Epoch: 2026-09-20T12:30:22.972608Z

Period
94.01 min
Inclination
53.1575°
Eccentricity
0.0001290
Mean motion
15.31717354 rev/d
Perigee alt
469.8 km
Apogee alt
471.6 km
Semi-major
6,848.8 km
B*
5.4723e-4
RAAN
264.8216°
Arg perigee
85.0321°
Mean anomaly
275.0828°
Rev number
7,491

§ Raw data

STARLINK-342331 64172U 25113C   26263.52109922  .00016663  00000+0  54723-3 0  99962 64172  53.1575 264.8216 0001290  85.0321 275.0828 15.31717354 74918

JSON: /api/v1/satellites/64172 · /tle

For live sub-satellite position, see the globe view (requires WebGL).

§ Visibility from observer

Set your observer location to see the next 7 days of passes ≥ 10°. The values pass through the URL so the page stays shareable.

No JS? Fill the form by hand. The geolocation button needs JavaScript.